Regional Weather Roundup
Issued by NWS New Orleans/Baton Rouge, LA

Home | Current Version | Previous Version | Text Only | Print | Product List | Glossary On
Versions: 1 2 3 4 5 6 7 8 9 10 11 12 13 14 15 16 17 18 19 20 21 22 23 24 25 26 27 28 29 30 31 32 33 34 35 36 37 38 39 40 41 42 43 44 45 46 47 48 49 50
388
ASUS44 KLIX 060010
RWRLIX
NEW ORLEANS REGIONAL WEATHER ROUNDUP
NATIONAL WEATHER SERVICE NEW ORLEANS LA
600 PM CST FRI FEB 05 2016

NOTE: "FAIR" INDICATES FEW OR NO CLOUDS BELOW 12,000 FEET WITH NO
      SIGNIFICANT WEATHER AND/OR OBSTRUCTIONS TO VISIBILITY.
      SKY/WX - SKY CONDITION AND SIGNIFICANT WEATHER.
      TMP - AIR TEMPERATURE.     DP    - DEWPOINT TEMPERATURE.
      RH  - RELATIVE HUMIDITY.   PRES  - PRESSURE.
      HI  - HEAT INDEX.          WCI   - WIND CHILL INDEX.

*  THESE STATIONS ARE NOT NWS OR FAA STATIONS AND ARE NOT UNDER
   NWS QUALITY CONTROL.

LAZ038-040-048-061>063-065>067-069-060100-
SOUTHEAST LOUISIANA

CITY           SKY/WX    TMP DP  RH WIND       PRES   REMARKS
N.O. AUDUBON   NOT AVBL
N.O. INTL ARPT PTCLDY    51  16  24 CALM      30.38S
6HR MIN TEMP:  50; 6HR MAX TEMP:  55;

N.O. LAKEFRONT CLEAR     49  25  39 W3        30.38F
6HR MIN TEMP:  47; 6HR MAX TEMP:  51;

N.O. DOWNTOWN*   N/A     52  18  25 MISG      30.38F
6HR MIN TEMP:  48; 6HR MAX TEMP:  54;

RESERVE*         N/A     52  17  25 CALM      30.37F
6HR MIN TEMP:  52; 6HR MAX TEMP:  56;

SLIDELL        CLEAR     48  28  46 CALM      30.37F
6HR MIN TEMP:  48; 6HR MAX TEMP:  57;

BATON ROUGE    CLEAR     51  18  27 E5        30.36F
6HR MIN TEMP:  50; 6HR MAX TEMP:  57;

BOOTHVILLE     CLEAR     47  32  56 NE3       30.39F
6HR MIN TEMP:  47; 6HR MAX TEMP:  52;

BELLE CHASSE   CLEAR     46  21  37 CALM      30.38S
6HR MIN TEMP:  46; 6HR MAX TEMP:  55;

BOGALUSA*        N/A     48  27  44 CALM      30.39S
6HR MIN TEMP:  48; 6HR MAX TEMP:  57;

GALLIANO*      CLEAR     50  27  40 CALM      30.38S
6HR MIN TEMP:  50; 6HR MAX TEMP:  55;

NEW ROADS*       N/A     49  22  34 E3        30.37S
6HR MIN TEMP:  49; 6HR MAX TEMP:  55;

GONZALES*        N/A     52  20  28 CALM      30.36F
6HR MIN TEMP:  51; 6HR MAX TEMP:  56;

HAMMOND*       CLEAR     46  23  39 CALM      30.37F
HOUMA*         CLEAR     45  25  45 E6        30.37F
PORT FOURCHON* CLEAR     50  27  40 NE12G17   30.38F

$$

MSZ070-080>082-060100-
SOUTHERN MISSISSIPPI

CITY           SKY/WX    TMP DP  RH WIND       PRES   REMARKS
MCCOMB         CLEAR     47  25  42 NE3       30.37S
6HR MIN TEMP:  47; 6HR MAX TEMP:  55;

GULFPORT       CLEAR     51  19  28 N5        30.38R
6HR MIN TEMP:  51; 6HR MAX TEMP:  58;

BILOXI         CLEAR     51  22  32 NE3       30.37S
6HR MIN TEMP:  51; 6HR MAX TEMP:  56;

PASCAGOULA     CLEAR     47  24  40 N3        30.38S
6HR MIN TEMP:  47; 6HR MAX TEMP:  57;

STENNIS ARPT*  CLEAR     46  19  34 CALM      30.39R

$$

COASTAL OBSERVATIONS
LAKE AND NEARSHORE STATIONS

STATION/POSITION TIME  TEMP    WIND        PRES    WAVE
                       AIR SEA DIR/SP/G            HT/PER
                 (UTC) (F)     (DEG/KT/KT) (MB)    (FT/S)

OFFSHORE STATIONS

STATION/POSITION TIME  TEMP    WIND        PRES    WAVE
                       AIR SEA DIR/SP/G            HT/PER
                 (UTC) (F)     (DEG/KT/KT) (MB)    (FT/S)

$$





USA.gov is the U.S. government's official web portal to all federal, state and local government web resources and services.